Location: Invercargill
(46.4000°S, 168.3500°E)
Time: 10:32:12
(UTC+12:00)

Cosmos 1825 - Pass Details

Date: 14 May 2021
Orbit: 501 x 507 km, 82.5° (Epoch: 15 June)

Event Time Altitude Azimuth Distance (km) Brightness Sun altitude
Rises 18:05:30 0° 12° (NNE) 2,602 5.9 -7.2°
Reaches altitude 10° 18:07:42 10° 20° (NNE) 1,725 4.9 -7.6°
Maximum altitude 18:11:12 37° 87° (E) 807 2.7 -8.2°
Drops below altitude 10° 18:14:46 10° 155° (SSE) 1,750 4.5 -8.7°
Sets 18:17:00 0° 163° (SSE) 2,644 5.5 -9.1°
